CW9463 Weather Reports


time (UTC)temp
C
wind
direction
speed
KPH
gust
KPH
rain 1hr
cm
rain 24hr
cm
rain mn
cm
humidity
%
barometer
mb
20260504050019 11 248 0.0 1.6 0.00 0.20 0.00 77 1005.7
20260504044528 12 248 0.0 4.8 0.00 0.20 0.20 76 1005.6
20260504043027 12 169 1.6 6.4 0.00 0.20 0.20 75 1005.7
20260504041517 12 177 0.0 4.8 0.00 0.20 0.20 75 1005.6
20260504040020 12 158 1.6 3.2 0.00 0.20 0.20 74 1005.6
20260504034516 12 173 1.6 4.8 0.00 0.20 0.20 73 1005.7
20260504033015 13 192 0.0 1.6 0.00 0.20 0.20 72 1005.9
20260504031518 13 190 1.6 6.4 0.00 0.20 0.20 72 1006.1
20260504030014 13 189 0.0 4.8 0.00 0.20 0.20 71 1006.1
20260504024514 13 190 0.0 0.0 0.00 0.20 0.20 72 1006.1
20260504023013 13 42 0.0 0.0 0.00 0.20 0.20 70 1006.1
20260504021515 13 196 0.0 0.0 0.00 0.20 0.20 69 1006.0
20260504020012 13 196 0.0 0.0 0.00 0.20 0.20 68 1005.8
20260504014512 14 196 0.0 0.0 0.00 0.20 0.20 68 1005.7
20260504013017 15 196 0.0 3.2 0.00 0.20 0.20 66 1005.5
20260504011511 15 226 0.0 3.2 0.00 0.20 0.20 64 1005.5
20260504010010 16 180 0.0 4.8 0.00 0.20 0.20 64 1005.5
20260504004516 16 227 0.0 3.2 0.00 0.20 0.20 62 1005.5
20260504003009 17 218 0.0 6.4 0.00 0.20 0.20 60 1005.5
20260504001509 17 296 1.6 6.4 0.00 0.20 0.20 58 1005.5
20260504000008 17 216 1.6 4.8 0.00 0.20 0.20 57 1005.5
20260503234509 18 277 0.0 4.8 0.00 0.20 0.20 58 1005.6
20260503233006 18 267 1.6 6.4 0.00 0.20 0.20 56 1005.6
20260503231506 18 230 1.6 6.4 0.00 0.20 0.20 53 1005.7
20260503230004 18 260 1.6 9.7 0.00 0.20 0.20 54 1005.7
20260503224503 18 272 3.2 12.9 0.00 0.20 0.20 53 1005.9
20260503223003 19 250 3.2 16.1 0.00 0.20 0.20 51 1006.0
20260503221501 18 246 4.8 12.9 0.00 0.20 0.20 52 1005.9
20260503220100 19 231 1.6 11.3 0.00 0.20 0.20 52 1006.2
20260503214558 18 283 3.2 8.0 0.00 0.20 0.20 54 1006.2
20260503213102 19 246 1.6 6.4 0.00 0.20 0.20 51 1006.5
20260503211611 18 213 3.2 8.0 0.00 0.20 0.20 49 1006.6
20260503210052 18 232 1.6 6.4 0.00 0.20 0.20 54 1006.9
20260503204550 18 196 3.2 9.7 0.00 0.20 0.20 54 1007.3
20260503203050 18 184 4.8 12.9 0.00 0.20 0.20 50 1007.7
20260503201548 18 161 4.8 14.5 0.00 0.20 0.20 49 1007.7
20260503200055 18 146 6.4 16.1 0.00 0.20 0.20 48 1007.9
20260503194545 18 182 4.8 16.1 0.00 0.20 0.20 50 1008.3
20260503193055 19 22 6.4 14.5 0.00 0.20 0.20 50 1008.4
20260503191543 18 162 6.4 14.5 0.00 0.20 0.20 51 1008.6
20260503190035 17 200 3.2 12.9 0.00 0.20 0.20 59 1008.8
20260503184540 17 170 3.2 12.9 0.00 0.20 0.20 61 1009.0
20260503183027 16 192 4.8 12.9 0.00 0.20 0.20 64 1009.2
20260503181522 15 183 3.2 9.7 0.03 0.20 0.20 71 1009.7
20260503180035 13 173 3.2 11.3 0.03 0.20 0.20 75 1010.2
20260503174517 11 259 3.2 8.0 0.03 0.20 0.20 86 1010.7
20260503173014 8 59 0.0 1.6 0.03 0.20 0.20 89 1011.1
20260503171509 8 190 0.0 3.2 0.03 0.18 0.18 89 1011.9
20260503150106 11 258 3.2 9.7 0.00 0.00 0.00 69 1014.5
20260503081558 5 169 0.0 1.6 0.00 0.00 0.00 74 1015.0
20260503080106 5 159 0.0 0.0 0.00 0.00 0.00 73 1015.1
20260503071600 5 184 0.0 1.6 0.00 0.00 0.00 70 1015.1